This is the latest recevied weather packets stored in our database for station/object WB0OCV. If no packets are shown the sender has not sent any weather packets the latest 1 day(s).
| Time | Temp. | Humidity | Pressure | Rain* | Wind** | Luminosity | Snow |
|---|---|---|---|---|---|---|---|
| 1778018750 | 15° C | 78% | 1013.9 hPa | 0 mm | 0.45 m/s, 169° | 65 W/m² | - |
| 1778018448 | 15° C | 78% | 1013.9 hPa | 0 mm | 0.89 m/s, 181° | 76 W/m² | - |
| 1778018146 | 15° C | 78% | 1014.1 hPa | 0 mm | 0.89 m/s, 159° | 63 W/m² | - |
| 1778017844 | 15.56° C | 77% | 1014.3 hPa | 0 mm | 2.24 m/s, 233° | 82 W/m² | - |
| 1778017541 | 15.56° C | 76% | 1014 hPa | 0 mm | 2.68 m/s, 221° | 165 W/m² | - |
| 1778017238 | 15.56° C | 75% | 1014.3 hPa | 0 mm | 0.89 m/s, 174° | 197 W/m² | - |
| 1778016936 | 15.56° C | 74% | 1014 hPa | 0 mm | 1.34 m/s, 169° | 219 W/m² | - |
| 1778016632 | 15.56° C | 74% | 1013.8 hPa | 0 mm | 1.34 m/s, 342° | 240 W/m² | - |
| 1778016328 | 16.11° C | 73% | 1013.8 hPa | 0 mm | 0.89 m/s, 154° | 261 W/m² | - |
| 1778016026 | 16.11° C | 72% | 1013.8 hPa | 0 mm | 1.34 m/s, 244° | 273 W/m² | - |
| 1778015723 | 16.11° C | 73% | 1014.1 hPa | 0 mm | 1.34 m/s, 180° | 295 W/m² | - |
| 1778015419 | 16.11° C | 72% | 1014 hPa | 0 mm | 1.34 m/s, 212° | 310 W/m² | - |
| 1778015116 | 16.67° C | 71% | 1013.9 hPa | 0 mm | 1.34 m/s, 174° | 327 W/m² | - |
| 1778014814 | 16.67° C | 72% | 1013.7 hPa | 0 mm | 0.89 m/s, 160° | 345 W/m² | - |
| 1778014512 | 16.67° C | 71% | 1013.8 hPa | 0 mm | 0.89 m/s, 214° | 362 W/m² | - |
| 1778014208 | 16.67° C | 71% | 1013.9 hPa | 0 mm | 1.34 m/s, 249° | 377 W/m² | - |
| 1778013906 | 16.67° C | 71% | 1013.8 hPa | 0 mm | 1.34 m/s, 216° | 392 W/m² | - |
| 1778013603 | 16.67° C | 71% | 1013.7 hPa | 0 mm | 1.34 m/s, 186° | 408 W/m² | - |
| 1778013299 | 17.22° C | 70% | 1013.7 hPa | 0 mm | 0.89 m/s, 238° | 424 W/m² | - |
| 1778012996 | 17.22° C | 71% | 1013.6 hPa | 0 mm | 1.34 m/s, 269° | 441 W/m² | - |
| 1778012693 | 16.67° C | 70% | 1013.7 hPa | 0 mm | 0.89 m/s, 209° | 453 W/m² | - |
| 1778012388 | 17.22° C | 71% | 1013.7 hPa | 0 mm | 2.68 m/s, 168° | 469 W/m² | - |
| 1778012086 | 16.67° C | 70% | 1013.7 hPa | 0 mm | 1.34 m/s, 244° | 481 W/m² | - |
| 1778011783 | 17.22° C | 71% | 1013.8 hPa | 0 mm | 1.79 m/s, 235° | 496 W/m² | - |
| 1778011481 | 16.67° C | 70% | 1014 hPa | 0 mm | 1.34 m/s, 211° | 510 W/m² | - |
* Rain latest hour (hover to see other rain measurements)
** Current wind speed in m/s (hover to see current wind gust speed)